FW9613 Weather Reports


time (UTC)temp
C
wind
direction
speed
KPH
gust
KPH
rain 1hr
cm
rain 24hr
cm
rain mn
cm
humidity
%
barometer
mb
20260906164601 35 50 8.0 16.1 0.00 0.00 0.00 45 1016.4
20260906163105 35 23 4.8 16.1 0.00 0.00 0.00 46 1016.4
20260906161559 36 11 1.6 9.7 0.00 0.00 0.00 45 1016.5
20260906154606 34 5 4.8 9.7 0.00 0.00 0.00 49 1016.6
20260906153101 33 35 1.6 9.7 0.00 0.00 0.00 52 1016.5
20260906151604 32 109 6.4 11.3 0.00 0.00 0.00 54 1016.4
20260906150107 31 132 6.4 12.9 0.00 0.00 0.00 58 1016.4
20260906144609 31 103 6.4 12.9 0.00 0.00 0.00 57 1016.4
20260906143102 29 143 3.2 12.9 0.00 0.00 0.00 63 1016.4
20260906141625 28 98 4.8 11.3 0.00 0.00 0.00 65 1016.4
20260906140111 28 54 4.8 12.9 0.00 0.00 0.00 65 1016.4
20260906134629 28 66 6.4 12.9 0.00 0.00 0.00 67 1016.3
20260906133113 27 80 4.8 12.9 0.00 0.00 0.00 68 1016.2
20260906131604 27 59 4.8 11.3 0.00 0.00 0.00 69 1016.0
20260906130147 26 105 0.0 0.0 0.00 0.00 0.00 72 1015.9
20260906124611 25 45 3.2 6.4 0.00 0.00 0.00 73 1015.8
20260906123105 25 63 3.2 6.4 0.00 0.00 0.00 73 1015.5
20260906121609 24 0 0.0 3.2 0.00 0.00 0.00 75 1015.4
20260906120110 24 83 1.6 3.2 0.00 0.00 0.00 75 1015.5
20260906114612 24 83 1.6 6.4 0.00 0.00 0.00 75 1015.3
20260906113107 24 0 0.0 0.0 0.00 0.00 0.00 75 1015.2
20260906111602 24 0 0.0 3.2 0.00 0.00 0.00 74 1015.0
20260906110104 25 60 1.6 4.8 0.00 0.00 0.00 72 1015.1
20260906104602 25 0 0.0 0.0 0.00 0.00 0.00 70 1015.2
20260906103104 26 0 0.0 4.8 0.00 0.00 0.00 66 1015.1
20260906101604 25 0 0.0 0.0 0.00 0.00 0.00 70 1015.0
20260906094601 25 0 0.0 0.0 0.00 0.00 0.00 69 1014.7
20260906093105 26 0 0.0 0.0 0.00 0.00 0.00 69 1014.6
20260906091603 26 0 0.0 3.2 0.00 0.00 0.00 68 1014.5
20260906084606 27 0 0.0 0.0 0.00 0.00 0.00 64 1014.2
20260906083103 27 0 0.0 0.0 0.00 0.00 0.00 63 1014.3
20260906081601 27 0 0.0 0.0 0.00 0.00 0.00 64 1014.2
20260906080106 27 0 0.0 0.0 0.00 0.00 0.00 64 1014.2
20260906074602 27 0 0.0 3.2 0.00 0.00 0.00 63 1014.3
20260906073101 27 0 0.0 0.0 0.00 0.00 0.00 65 1014.4
20260906071603 27 0 0.0 1.6 0.00 0.00 0.00 65 1014.5
20260906064602 27 79 0.0 3.2 0.00 0.00 0.00 64 1014.6
20260906063101 28 0 0.0 0.0 0.00 0.00 0.00 63 1014.9
20260906061626 27 0 0.0 0.0 0.00 0.00 0.00 62 1015.0
20260906060119 27 0 0.0 1.6 0.00 0.00 0.00 63 1015.0
20260906054604 28 81 1.6 4.8 0.00 0.00 0.00 63 1015.0
20260906053102 27 0 0.0 0.0 0.00 0.00 0.00 62 1014.9
20260906051609 28 0 0.0 0.0 0.00 0.00 0.00 61 1014.8
20260906044554 28 0 0.0 0.0 0.00 0.00 0.00 60 1014.9
20260906043105 29 0 0.0 0.0 0.00 0.00 0.00 58 1015.0
20260906041602 29 0 0.0 3.2 0.00 0.00 0.00 57 1015.0
20260906040101 28 0 0.0 0.0 0.00 0.00 0.00 60 1015.0
20260906034607 28 0 0.0 0.0 0.00 0.00 0.00 60 1014.9
20260906033107 28 0 0.0 0.0 0.00 0.00 0.00 60 1014.8
20260906031600 28 0 0.0 0.0 0.00 0.00 0.00 59 1014.6
20260906030111 29 94 0.0 4.8 0.00 0.00 0.00 58 1014.6
20260906024604 29 0 0.0 0.0 0.00 0.00 0.00 58 1014.3
20260906023109 29 0 0.0 0.0 0.00 0.00 0.00 57 1014.3
20260906021608 29 0 0.0 0.0 0.00 0.00 0.00 57 1014.1
20260906020103 30 0 0.0 0.0 0.00 0.00 0.00 56 1014.0
20260906014608 30 0 0.0 0.0 0.00 0.00 0.00 56 1013.7
20260906013103 30 0 0.0 0.0 0.00 0.00 0.00 55 1013.5
20260906011607 30 0 0.0 4.8 0.00 0.00 0.00 55 1013.4
20260906010108 30 234 4.8 11.3 0.00 0.00 0.00 56 1013.4
20260906004601 30 188 9.7 16.1 0.00 0.00 0.00 55 1013.4
20260906003104 30 200 9.7 19.3 0.00 0.00 0.00 56 1013.5
20260906001606 31 227 8.0 16.1 0.00 0.00 0.00 55 1013.6
20260906000109 31 225 9.7 24.1 0.00 0.00 0.00 52 1013.6
20260905234606 33 137 9.7 22.5 0.00 0.00 0.00 46 1013.4
20260905233120 36 360 4.8 11.3 0.00 0.00 0.00 40 1013.0
20260905231604 36 9 3.2 12.9 0.00 0.00 0.00 39 1012.8
20260905230106 36 49 4.8 14.5 0.00 0.00 0.00 38 1012.7
20260905224607 36 29 1.6 6.4 0.00 0.00 0.00 38 1012.7
20260905223104 36 36 1.6 8.0 0.00 0.00 0.00 36 1012.7
20260905221604 37 57 4.8 12.9 0.00 0.00 0.00 35 1012.7
20260905220109 38 26 8.0 17.7 0.00 0.00 0.00 34 1012.8
20260905214604 40 60 9.7 20.9 0.00 0.00 0.00 30 1012.8
20260905213113 38 219 0.0 11.3 0.00 0.00 0.00 34 1012.8
20260905211610 39 51 3.2 17.7 0.00 0.00 0.00 33 1013.1
20260905210114 38 326 4.8 14.5 0.00 0.00 0.00 34 1013.1
20260905204603 37 360 4.8 14.5 0.00 0.00 0.00 36 1013.4
20260905203106 37 294 0.0 1.6 0.00 0.00 0.00 36 1013.7
20260905201601 38 108 3.2 9.7 0.00 0.00 0.00 35 1013.9
20260905200104 38 12 6.4 11.3 0.00 0.00 0.00 35 1014.0
20260905194606 38 0 0.0 14.5 0.00 0.00 0.00 33 1014.1
20260905193103 38 23 4.8 14.5 0.00 0.00 0.00 35 1014.3
20260905191606 38 5 4.8 14.5 0.00 0.00 0.00 36 1014.4
20260905190107 38 245 6.4 17.7 0.00 0.00 0.00 34 1014.6
20260905184611 38 30 6.4 16.1 0.00 0.00 0.00 35 1014.9
20260905183119 37 272 3.2 14.5 0.00 0.00 0.00 36 1015.2
20260905181606 37 72 1.6 16.1 0.00 0.00 0.00 38 1015.4
20260905180106 37 273 4.8 17.7 0.00 0.00 0.00 40 1015.6
20260905174603 36 294 1.6 16.1 0.00 0.00 0.00 40 1015.8
20260905173103 37 339 9.7 17.7 0.00 0.00 0.00 40 1016.0
20260905171601 36 115 3.2 14.5 0.00 0.00 0.00 41 1016.2
20260905170104 37 277 3.2 16.1 0.00 0.00 0.00 41 1016.3